| time (UTC) | temp C | wind direction | speed KPH | gust KPH | rain 1hr cm | rain 24hr cm | rain mn cm | humidity % | barometer mb |
| 20260510100821 | 10 | 0 | 0.0 | 0.0 | 0.00 | 0.00 | 0.00 | 89 | 1018.8 |
| 20260510100308 | 10 | 0 | 0.0 | 0.0 | 0.00 | 0.00 | 0.00 | 89 | 1018.7 |
| 20260510095755 | 11 | 0 | 0.0 | 0.0 | 0.00 | 0.00 | 0.00 | 89 | 1018.6 |
| 20260510095242 | 10 | 0 | 0.0 | 0.0 | 0.00 | 0.00 | 0.00 | 89 | 1018.5 |
| 20260510094729 | 10 | 42 | 0.0 | 6.4 | 0.00 | 0.00 | 0.00 | 89 | 1018.4 |
| 20260510094216 | 10 | 0 | 0.0 | 6.4 | 0.00 | 0.00 | 0.00 | 89 | 1018.4 |
| 20260510093703 | 10 | 63 | 0.0 | 6.4 | 0.00 | 0.00 | 0.00 | 89 | 1018.5 |
| 20260510093150 | 10 | 0 | 0.0 | 0.0 | 0.00 | 0.00 | 0.00 | 89 | 1018.5 |
| 20260510092637 | 10 | 0 | 0.0 | 0.0 | 0.00 | 0.00 | 0.00 | 89 | 1018.8 |
| 20260510092124 | 10 | 0 | 0.0 | 1.6 | 0.00 | 0.00 | 0.00 | 89 | 1018.7 |
| 20260510091612 | 11 | 0 | 0.0 | 1.6 | 0.00 | 0.00 | 0.00 | 88 | 1018.7 |
| 20260510091058 | 11 | 0 | 0.0 | 1.6 | 0.00 | 0.00 | 0.00 | 88 | 1018.6 |
| 20260510090545 | 10 | 0 | 0.0 | 14.5 | 0.00 | 0.00 | 0.00 | 88 | 1018.6 |
| 20260510090032 | 11 | 0 | 0.0 | 14.5 | 0.00 | 0.00 | 0.00 | 88 | 1018.5 |
| 20260510085519 | 11 | 65 | 1.6 | 14.5 | 0.00 | 0.00 | 0.00 | 88 | 1018.5 |
| 20260510085006 | 11 | 0 | 0.0 | 0.0 | 0.00 | 0.00 | 0.00 | 88 | 1018.4 |
| 20260510084453 | 11 | 0 | 0.0 | 8.0 | 0.00 | 0.00 | 0.00 | 88 | 1018.5 |
| 20260510083940 | 11 | 79 | 0.0 | 8.0 | 0.00 | 0.00 | 0.00 | 88 | 1018.5 |
| 20260510083427 | 11 | 9 | 1.6 | 8.0 | 0.00 | 0.00 | 0.00 | 88 | 1018.4 |
| 20260510082914 | 11 | 0 | 0.0 | 4.8 | 0.00 | 0.00 | 0.00 | 88 | 1018.4 |
| 20260510082401 | 11 | 9 | 0.0 | 9.7 | 0.00 | 0.00 | 0.00 | 88 | 1018.1 |
| 20260510081848 | 11 | 46 | 0.0 | 9.7 | 0.00 | 0.00 | 0.00 | 88 | 1018.1 |
| 20260510081335 | 11 | 0 | 0.0 | 9.7 | 0.00 | 0.00 | 0.00 | 88 | 1018.2 |
| 20260510080822 | 11 | 0 | 0.0 | 8.0 | 0.00 | 0.00 | 0.00 | 88 | 1018.4 |
| 20260510080309 | 11 | 0 | 0.0 | 8.0 | 0.00 | 0.00 | 0.00 | 88 | 1018.3 |
| 20260510075756 | 11 | 329 | 0.0 | 3.2 | 0.00 | 0.00 | 0.00 | 88 | 1018.2 |
| 20260510075243 | 11 | 0 | 0.0 | 0.0 | 0.00 | 0.00 | 0.00 | 88 | 1018.2 |
| 20260510074730 | 11 | 338 | 0.0 | 9.7 | 0.00 | 0.00 | 0.00 | 88 | 1018.3 |
| 20260510073704 | 11 | 305 | 0.0 | 9.7 | 0.00 | 0.00 | 0.00 | 88 | 1018.5 |
| 20260510073151 | 11 | 0 | 0.0 | 8.0 | 0.00 | 0.00 | 0.00 | 88 | 1018.4 |
| 20260510072125 | 11 | 0 | 0.0 | 0.0 | 0.00 | 0.00 | 0.00 | 88 | 1018.1 |
| 20260510071612 | 11 | 96 | 3.2 | 14.5 | 0.00 | 0.00 | 0.00 | 88 | 1018.1 |
| 20260510071059 | 11 | 0 | 0.0 | 14.5 | 0.00 | 0.00 | 0.00 | 88 | 1018.1 |
| 20260510070546 | 11 | 77 | 3.2 | 14.5 | 0.00 | 0.00 | 0.00 | 88 | 1018.1 |
| 20260510070033 | 11 | 18 | 1.6 | 9.7 | 0.00 | 0.00 | 0.00 | 88 | 1018.2 |
| 20260510065520 | 11 | 0 | 0.0 | 9.7 | 0.00 | 0.00 | 0.00 | 88 | 1018.2 |
| 20260510065007 | 11 | 0 | 0.0 | 0.0 | 0.00 | 0.00 | 0.00 | 88 | 1018.2 |
| 20260510064454 | 11 | 0 | 0.0 | 11.3 | 0.00 | 0.00 | 0.00 | 88 | 1018.1 |
| 20260510063941 | 11 | 0 | 0.0 | 11.3 | 0.00 | 0.00 | 0.00 | 88 | 1018.2 |
| 20260510063429 | 11 | 0 | 0.0 | 9.7 | 0.00 | 0.00 | 0.00 | 88 | 1018.2 |
| 20260510062915 | 11 | 0 | 0.0 | 9.7 | 0.00 | 0.00 | 0.00 | 88 | 1018.2 |
| 20260510062402 | 11 | 0 | 0.0 | 6.4 | 0.00 | 0.00 | 0.00 | 88 | 1018.3 |
| 20260510061849 | 11 | 0 | 0.0 | 9.7 | 0.00 | 0.00 | 0.00 | 88 | 1018.3 |
| 20260510061336 | 11 | 0 | 0.0 | 9.7 | 0.00 | 0.00 | 0.00 | 88 | 1018.3 |
| 20260510060823 | 11 | 0 | 0.0 | 9.7 | 0.00 | 0.00 | 0.00 | 88 | 1018.3 |
| 20260510060310 | 11 | 0 | 0.0 | 12.9 | 0.00 | 0.00 | 0.00 | 88 | 1018.3 |
| 20260510055757 | 11 | 0 | 0.0 | 12.9 | 0.00 | 0.00 | 0.00 | 88 | 1018.3 |
| 20260510055244 | 11 | 105 | 0.0 | 12.9 | 0.00 | 0.00 | 0.00 | 88 | 1018.3 |
| 20260510054731 | 11 | 58 | 0.0 | 9.7 | 0.00 | 0.00 | 0.00 | 88 | 1018.3 |
| 20260510054218 | 11 | 44 | 0.0 | 8.0 | 0.00 | 0.00 | 0.00 | 88 | 1018.3 |
| 20260510053705 | 11 | 0 | 0.0 | 0.0 | 0.00 | 0.00 | 0.00 | 88 | 1018.3 |
| 20260510053152 | 11 | 340 | 1.6 | 11.3 | 0.00 | 0.00 | 0.00 | 88 | 1018.3 |
| 20260510052639 | 11 | 0 | 0.0 | 11.3 | 0.00 | 0.00 | 0.00 | 88 | 1018.3 |
| 20260510052126 | 11 | 121 | 3.2 | 11.3 | 0.00 | 0.00 | 0.00 | 88 | 1018.3 |
| 20260510051613 | 11 | 63 | 0.0 | 12.9 | 0.00 | 0.00 | 0.00 | 88 | 1018.3 |
| 20260510051100 | 11 | 0 | 0.0 | 12.9 | 0.00 | 0.00 | 0.00 | 88 | 1018.2 |
| 20260510050547 | 11 | 29 | 3.2 | 12.9 | 0.00 | 0.00 | 0.00 | 88 | 1018.2 |
| 20260510050034 | 11 | 0 | 0.0 | 9.7 | 0.00 | 0.00 | 0.00 | 87 | 1018.2 |
| 20260510045521 | 11 | 63 | 0.0 | 9.7 | 0.00 | 0.00 | 0.00 | 87 | 1018.1 |
| 20260510045008 | 11 | 0 | 0.0 | 0.0 | 0.00 | 0.00 | 0.00 | 87 | 1018.1 |
| 20260510044455 | 11 | 0 | 0.0 | 14.5 | 0.00 | 0.00 | 0.00 | 87 | 1018.0 |
| 20260510043942 | 11 | 68 | 3.2 | 14.5 | 0.00 | 0.00 | 0.00 | 87 | 1017.9 |
| 20260510043429 | 11 | 117 | 6.4 | 14.5 | 0.00 | 0.00 | 0.00 | 87 | 1017.8 |
| 20260510042916 | 11 | 110 | 3.2 | 12.9 | 0.00 | 0.00 | 0.00 | 87 | 1017.7 |
| 20260510042403 | 11 | 208 | 0.0 | 12.9 | 0.00 | 0.00 | 0.00 | 87 | 1017.6 |
| 20260510041850 | 11 | 26 | 4.8 | 12.9 | 0.00 | 0.00 | 0.00 | 87 | 1017.5 |
| 20260510041337 | 11 | 0 | 0.0 | 0.0 | 0.00 | 0.00 | 0.00 | 87 | 1017.6 |
| 20260510040824 | 11 | 0 | 0.0 | 16.1 | 0.00 | 0.00 | 0.00 | 87 | 1017.5 |
| 20260510040311 | 11 | 0 | 1.6 | 16.1 | 0.00 | 0.00 | 0.00 | 87 | 1017.6 |
| 20260510035758 | 11 | 46 | 0.0 | 8.0 | 0.00 | 0.00 | 0.00 | 87 | 1017.5 |
| 20260510035245 | 11 | 0 | 0.0 | 11.3 | 0.00 | 0.00 | 0.00 | 86 | 1017.5 |
| 20260510034732 | 11 | 326 | 0.0 | 11.3 | 0.00 | 0.00 | 0.00 | 86 | 1017.3 |
| 20260510034219 | 11 | 37 | 0.0 | 11.3 | 0.00 | 0.00 | 0.00 | 86 | 1017.2 |
| 20260510033706 | 11 | 298 | 0.0 | 11.3 | 0.00 | 0.00 | 0.00 | 86 | 1017.2 |
| 20260510033153 | 11 | 0 | 0.0 | 0.0 | 0.00 | 0.00 | 0.00 | 86 | 1017.1 |
| 20260510032642 | 11 | 63 | 4.8 | 12.9 | 0.00 | 0.00 | 0.00 | 86 | 1017.0 |
| 20260510032127 | 11 | 51 | 0.0 | 12.9 | 0.00 | 0.00 | 0.00 | 85 | 1016.9 |
| 20260510031614 | 11 | 79 | 6.4 | 12.9 | 0.00 | 0.00 | 0.00 | 85 | 1016.8 |
| 20260510031101 | 12 | 0 | 0.0 | 12.9 | 0.00 | 0.00 | 0.00 | 85 | 1016.8 |
| 20260510030547 | 12 | 110 | 8.0 | 12.9 | 0.00 | 0.00 | 0.00 | 85 | 1016.7 |
| 20260510030035 | 12 | 61 | 0.0 | 12.9 | 0.00 | 0.00 | 0.00 | 85 | 1016.6 |
| 20260510025522 | 12 | 112 | 0.0 | 8.0 | 0.00 | 0.00 | 0.00 | 85 | 1016.6 |
| 20260510025009 | 12 | 95 | 1.6 | 8.0 | 0.00 | 0.00 | 0.00 | 85 | 1016.5 |
| 20260510024455 | 12 | 0 | 0.0 | 12.9 | 0.00 | 0.00 | 0.00 | 84 | 1016.5 |
| 20260510023943 | 12 | 46 | 0.0 | 12.9 | 0.00 | 0.00 | 0.00 | 84 | 1016.5 |
| 20260510023429 | 12 | 79 | 1.6 | 12.9 | 0.00 | 0.00 | 0.00 | 84 | 1016.4 |
| 20260510022916 | 12 | 309 | 1.6 | 12.9 | 0.00 | 0.00 | 0.00 | 84 | 1016.5 |
| 20260510022403 | 12 | 0 | 3.2 | 9.7 | 0.00 | 0.00 | 0.00 | 83 | 1016.5 |
| 20260510021851 | 12 | 0 | 0.0 | 20.9 | 0.00 | 0.00 | 0.00 | 83 | 1016.5 |
| 20260510021337 | 12 | 50 | 1.6 | 20.9 | 0.00 | 0.00 | 0.00 | 83 | 1016.5 |
| 20260510020824 | 12 | 82 | 9.7 | 20.9 | 0.00 | 0.00 | 0.00 | 83 | 1016.6 |
| 20260510020311 | 12 | 0 | 6.4 | 14.5 | 0.00 | 0.00 | 0.00 | 83 | 1016.5 |
| 20260510015758 | 12 | 345 | 4.8 | 17.7 | 0.00 | 0.00 | 0.00 | 83 | 1016.5 |
| 20260510015245 | 12 | 84 | 1.6 | 17.7 | 0.00 | 0.00 | 0.00 | 83 | 1016.6 |
| 20260510014733 | 12 | 85 | 6.4 | 17.7 | 0.00 | 0.00 | 0.00 | 82 | 1016.7 |
| 20260510014219 | 12 | 326 | 0.0 | 12.9 | 0.00 | 0.00 | 0.00 | 83 | 1016.7 |
| 20260510013153 | 12 | 60 | 4.8 | 17.7 | 0.00 | 0.00 | 0.00 | 82 | 1016.9 |
| 20260510012643 | 12 | 70 | 4.8 | 17.7 | 0.00 | 0.00 | 0.00 | 82 | 1016.9 |
| 20260510012127 | 12 | 22 | 0.0 | 17.7 | 0.00 | 0.00 | 0.00 | 82 | 1016.9 |
| 20260510011614 | 12 | 64 | 6.4 | 17.7 | 0.00 | 0.00 | 0.00 | 81 | 1017.1 |
| 20260510011101 | 12 | 71 | 3.2 | 17.7 | 0.00 | 0.00 | 0.00 | 81 | 1017.0 |
| 20260510010548 | 13 | 63 | 6.4 | 11.3 | 0.00 | 0.00 | 0.00 | 81 | 1017.0 |
| 20260510010035 | 12 | 36 | 6.4 | 17.7 | 0.00 | 0.00 | 0.00 | 81 | 1016.8 |
| 20260510005011 | 12 | 68 | 9.7 | 17.7 | 0.00 | 0.00 | 0.00 | 81 | 1016.8 |
| 20260510004456 | 13 | 113 | 1.6 | 14.5 | 0.00 | 0.00 | 0.00 | 81 | 1016.7 |
| 20260510003943 | 13 | 57 | 6.4 | 17.7 | 0.00 | 0.00 | 0.00 | 81 | 1016.7 |
| 20260510003430 | 13 | 267 | 4.8 | 17.7 | 0.00 | 0.00 | 0.00 | 81 | 1016.7 |
| 20260510002404 | 13 | 0 | 6.4 | 19.3 | 0.00 | 0.00 | 0.00 | 80 | 1016.6 |
| 20260510001851 | 13 | 316 | 4.8 | 19.3 | 0.00 | 0.00 | 0.00 | 80 | 1016.6 |
| 20260510001338 | 13 | 133 | 9.7 | 19.3 | 0.00 | 0.00 | 0.00 | 79 | 1016.5 |
| 20260510000825 | 13 | 9 | 6.4 | 14.5 | 0.00 | 0.00 | 0.00 | 80 | 1016.6 |
| 20260510000312 | 13 | 37 | 4.8 | 24.1 | 0.00 | 0.00 | 0.00 | 80 | 1016.6 |
| 20260509235759 | 13 | 85 | 4.8 | 24.1 | 0.00 | 0.00 | 0.00 | 80 | 1016.7 |
| 20260509235246 | 13 | 78 | 6.4 | 24.1 | 0.00 | 0.00 | 0.00 | 80 | 1016.7 |
| 20260509234733 | 13 | 91 | 3.2 | 17.7 | 0.00 | 0.00 | 0.00 | 80 | 1016.8 |
| 20260509233707 | 13 | 299 | 6.4 | 14.5 | 0.00 | 0.00 | 0.00 | 80 | 1016.9 |
| 20260509232643 | 13 | 100 | 8.0 | 19.3 | 0.00 | 0.00 | 0.00 | 80 | 1016.9 |
| 20260509232128 | 13 | 126 | 9.7 | 19.3 | 0.00 | 0.00 | 0.00 | 80 | 1017.0 |
| 20260509231615 | 13 | 309 | 6.4 | 19.3 | 0.00 | 0.00 | 0.00 | 79 | 1017.0 |
| 20260509230549 | 13 | 295 | 3.2 | 19.3 | 0.00 | 0.00 | 0.00 | 80 | 1017.0 |
| 20260509230036 | 13 | 71 | 9.7 | 19.3 | 0.00 | 0.00 | 0.00 | 78 | 1017.0 |
| 20260509225523 | 13 | 71 | 6.4 | 12.9 | 0.00 | 0.00 | 0.00 | 78 | 1017.1 |
| 20260509225010 | 13 | 299 | 8.0 | 12.9 | 0.00 | 0.00 | 0.00 | 78 | 1017.1 |
| 20260509224457 | 14 | 291 | 6.4 | 16.1 | 0.00 | 0.00 | 0.00 | 78 | 1017.0 |
| 20260509223944 | 14 | 330 | 3.2 | 16.1 | 0.00 | 0.00 | 0.00 | 78 | 1017.0 |
| 20260509223431 | 14 | 344 | 6.4 | 16.1 | 0.00 | 0.00 | 0.00 | 78 | 1016.9 |
| 20260509222918 | 14 | 145 | 6.4 | 14.5 | 0.00 | 0.00 | 0.00 | 78 | 1017.0 |
| 20260509222405 | 13 | 0 | 9.7 | 14.5 | 0.00 | 0.00 | 0.00 | 78 | 1016.9 |
| 20260509221852 | 14 | 2 | 9.7 | 16.1 | 0.00 | 0.00 | 0.00 | 78 | 1017.0 |
| 20260509221339 | 14 | 12 | 6.4 | 16.1 | 0.00 | 0.00 | 0.00 | 78 | 1017.0 |
| 20260509220826 | 14 | 299 | 6.4 | 16.1 | 0.00 | 0.00 | 0.00 | 78 | 1017.1 |
| 20260509220313 | 14 | 0 | 4.8 | 22.5 | 0.00 | 0.00 | 0.00 | 79 | 1017.2 |
| 20260509215800 | 14 | 7 | 6.4 | 22.5 | 0.00 | 0.00 | 0.00 | 79 | 1017.3 |
| 20260509215247 | 14 | 308 | 9.7 | 22.5 | 0.00 | 0.00 | 0.00 | 79 | 1017.4 |
| 20260509214734 | 14 | 89 | 6.4 | 19.3 | 0.00 | 0.00 | 0.00 | 79 | 1017.6 |
| 20260509214221 | 14 | 109 | 9.7 | 19.3 | 0.00 | 0.00 | 0.00 | 78 | 1017.6 |
| 20260509213709 | 15 | 338 | 9.7 | 16.1 | 0.00 | 0.00 | 0.00 | 78 | 1017.6 |
| 20260509213155 | 15 | 357 | 8.0 | 14.5 | 0.00 | 0.00 | 0.00 | 78 | 1017.6 |
| 20260509212643 | 14 | 46 | 6.4 | 14.5 | 0.00 | 0.00 | 0.00 | 79 | 1017.6 |
| 20260509212129 | 14 | 99 | 9.7 | 14.5 | 0.00 | 0.00 | 0.00 | 79 | 1017.7 |
| 20260509211616 | 14 | 336 | 4.8 | 14.5 | 0.00 | 0.00 | 0.00 | 80 | 1017.7 |
| 20260509210550 | 14 | 78 | 1.6 | 20.9 | 0.00 | 0.00 | 0.00 | 80 | 1018.0 |
| 20260509210037 | 13 | 54 | 4.8 | 20.9 | 0.00 | 0.00 | 0.00 | 81 | 1018.0 |
| 20260509205524 | 13 | 68 | 9.7 | 20.9 | 0.00 | 0.00 | 0.00 | 81 | 1018.0 |
| 20260509204458 | 13 | 114 | 8.0 | 17.7 | 0.00 | 0.00 | 0.00 | 82 | 1018.2 |
| 20260509203945 | 12 | 15 | 3.2 | 30.6 | 0.00 | 0.00 | 0.00 | 83 | 1018.2 |
| 20260509203432 | 12 | 75 | 4.8 | 30.6 | 0.00 | 0.00 | 0.00 | 83 | 1018.3 |
| 20260509202919 | 12 | 100 | 14.5 | 30.6 | 0.00 | 0.00 | 0.00 | 82 | 1018.4 |
| 20260509202406 | 12 | 310 | 6.4 | 22.5 | 0.00 | 0.00 | 0.00 | 82 | 1018.3 |
| 20260509201853 | 13 | 345 | 9.7 | 19.3 | 0.00 | 0.00 | 0.00 | 82 | 1018.3 |
| 20260509201340 | 13 | 57 | 8.0 | 19.3 | 0.00 | 0.00 | 0.00 | 82 | 1018.3 |
| 20260509200827 | 12 | 29 | 11.3 | 19.3 | 0.00 | 0.00 | 0.00 | 82 | 1018.4 |
| 20260509195801 | 12 | 77 | 8.0 | 19.3 | 0.00 | 0.00 | 0.00 | 83 | 1018.5 |
| 20260509195248 | 12 | 96 | 9.7 | 19.3 | 0.00 | 0.00 | 0.00 | 82 | 1018.5 |
| 20260509194735 | 13 | 21 | 9.7 | 19.3 | 0.00 | 0.00 | 0.00 | 82 | 1018.5 |
| 20260509194222 | 13 | 105 | 8.0 | 19.3 | 0.00 | 0.00 | 0.00 | 82 | 1018.5 |
| 20260509193709 | 13 | 60 | 3.2 | 19.3 | 0.00 | 0.00 | 0.00 | 83 | 1018.5 |
| 20260509193156 | 13 | 308 | 8.0 | 16.1 | 0.00 | 0.00 | 0.00 | 83 | 1018.5 |
| 20260509192643 | 13 | 323 | 3.2 | 14.5 | 0.00 | 0.00 | 0.00 | 84 | 1018.6 |
| 20260509192130 | 12 | 92 | 4.8 | 14.5 | 0.00 | 0.00 | 0.00 | 85 | 1018.5 |
| 20260509191617 | 12 | 100 | 9.7 | 17.7 | 0.00 | 0.00 | 0.00 | 85 | 1018.6 |
| 20260509191104 | 12 | 51 | 6.4 | 17.7 | 0.00 | 0.00 | 0.00 | 85 | 1018.7 |
| 20260509190551 | 12 | 110 | 8.0 | 17.7 | 0.00 | 0.00 | 0.00 | 85 | 1018.7 |
| 20260509190038 | 12 | 23 | 6.4 | 16.1 | 0.00 | 0.00 | 0.00 | 85 | 1019.0 |
| 20260509185525 | 12 | 63 | 4.8 | 16.1 | 0.00 | 0.00 | 0.00 | 86 | 1018.9 |
| 20260509185013 | 12 | 11 | 9.7 | 16.1 | 0.00 | 0.00 | 0.00 | 86 | 1018.9 |
| 20260509184639 | 12 | 301 | 8.0 | 16.1 | 0.00 | 0.00 | 0.00 | 86 | 1019.0 |
| 20260509184459 | 12 | 301 | 8.0 | 16.1 | 0.00 | 0.00 | 0.00 | 86 | 1019.0 |
| 20260509183946 | 12 | 112 | 4.8 | 16.1 | 0.00 | 0.00 | 0.00 | 87 | 1019.1 |
| 20260509183433 | 12 | 357 | 4.8 | 16.1 | 0.00 | 0.00 | 0.00 | 87 | 1019.0 |
| 20260509182920 | 12 | 302 | 4.8 | 16.1 | 0.00 | 0.00 | 0.00 | 88 | 1019.0 |
| 20260509182407 | 12 | 145 | 9.7 | 16.1 | 0.00 | 0.00 | 0.00 | 88 | 1019.0 |
| 20260509181854 | 12 | 100 | 4.8 | 16.1 | 0.00 | 0.00 | 0.00 | 88 | 1019.2 |
| 20260509181341 | 12 | 0 | 4.8 | 14.5 | 0.00 | 0.00 | 0.00 | 89 | 1019.1 |
| 20260509180828 | 12 | 0 | 4.8 | 14.5 | 0.00 | 0.00 | 0.00 | 88 | 1019.1 |
| 20260509180315 | 12 | 1 | 6.4 | 14.5 | 0.00 | 0.00 | 0.00 | 89 | 1019.2 |
| 20260509175802 | 12 | 329 | 0.0 | 14.5 | 0.00 | 0.00 | 0.00 | 89 | 1019.1 |
| 20260509175249 | 12 | 4 | 4.8 | 14.5 | 0.00 | 0.00 | 0.00 | 89 | 1019.0 |
| 20260509174223 | 12 | 299 | 0.0 | 14.5 | 0.00 | 0.00 | 0.00 | 90 | 1019.0 |
| 20260509173710 | 11 | 313 | 6.4 | 14.5 | 0.00 | 0.00 | 0.00 | 90 | 1019.0 |
| 20260509173157 | 12 | 313 | 0.0 | 14.5 | 0.00 | 0.00 | 0.00 | 90 | 1019.1 |
| 20260509172644 | 12 | 357 | 8.0 | 12.9 | 0.00 | 0.00 | 0.00 | 90 | 1019.1 |
| 20260509171618 | 12 | 289 | 6.4 | 11.3 | 0.00 | 0.00 | 0.00 | 91 | 1019.1 |
| 20260509171105 | 11 | 336 | 0.0 | 8.0 | 0.00 | 0.00 | 0.00 | 91 | 1019.1 |
| 20260509170552 | 11 | 0 | 0.0 | 8.0 | 0.00 | 0.00 | 0.00 | 92 | 1019.1 |
| 20260509170039 | 11 | 0 | 0.0 | 8.0 | 0.00 | 0.00 | 0.00 | 92 | 1019.3 |
| 20260509165526 | 11 | 336 | 3.2 | 8.0 | 0.00 | 0.00 | 0.00 | 92 | 1019.3 |
| 20260509164500 | 11 | 0 | 0.0 | 6.4 | 0.00 | 0.00 | 0.00 | 92 | 1019.2 |
| 20260509163947 | 10 | 0 | 0.0 | 6.4 | 0.00 | 0.00 | 0.00 | 93 | 1019.2 |
| 20260509163434 | 10 | 0 | 0.0 | 6.4 | 0.00 | 0.00 | 0.00 | 93 | 1019.4 |
| 20260509162921 | 10 | 333 | 1.6 | 6.4 | 0.00 | 0.00 | 0.00 | 93 | 1019.5 |
| 20260509161855 | 10 | 0 | 0.0 | 0.0 | 0.00 | 0.00 | 0.00 | 93 | 1019.5 |
| 20260509161342 | 10 | 0 | 0.0 | 0.0 | 0.00 | 0.00 | 0.00 | 93 | 1019.4 |
| 20260509160829 | 10 | 0 | 0.0 | 0.0 | 0.00 | 0.00 | 0.00 | 93 | 1019.6 |
| 20260509160316 | 10 | 0 | 0.0 | 0.0 | 0.00 | 0.00 | 0.00 | 93 | 1019.5 |
| 20260509155805 | 10 | 0 | 0.0 | 0.0 | 0.00 | 0.00 | 0.00 | 93 | 1019.6 |
| 20260509155250 | 10 | 0 | 0.0 | 0.0 | 0.00 | 0.00 | 0.00 | 93 | 1019.7 |
| 20260509154737 | 10 | 0 | 0.0 | 0.0 | 0.00 | 0.00 | 0.00 | 93 | 1019.8 |
| 20260509154224 | 10 | 0 | 0.0 | 0.0 | 0.00 | 0.00 | 0.00 | 93 | 1019.7 |
| 20260509153712 | 10 | 0 | 0.0 | 0.0 | 0.00 | 0.00 | 0.00 | 93 | 1019.7 |
| 20260509153158 | 10 | 0 | 0.0 | 0.0 | 0.00 | 0.00 | 0.00 | 93 | 1019.8 |
| 20260509152645 | 10 | 0 | 0.0 | 0.0 | 0.00 | 0.00 | 0.00 | 93 | 1019.8 |
| 20260509152132 | 10 | 0 | 0.0 | 0.0 | 0.00 | 0.00 | 0.00 | 93 | 1019.8 |
| 20260509151619 | 10 | 0 | 0.0 | 0.0 | 0.00 | 0.00 | 0.00 | 93 | 1019.8 |
| 20260509151106 | 10 | 0 | 0.0 | 0.0 | 0.00 | 0.00 | 0.00 | 93 | 1019.9 |
| 20260509150553 | 10 | 0 | 0.0 | 0.0 | 0.00 | 0.00 | 0.00 | 93 | 1019.8 |
| 20260509150040 | 9 | 0 | 0.0 | 0.0 | 0.00 | 0.00 | 0.00 | 93 | 1020.0 |
| 20260509145528 | 8 | 0 | 0.0 | 0.0 | 0.00 | 0.00 | 0.00 | 93 | 1020.0 |
| 20260509145014 | 8 | 0 | 0.0 | 0.0 | 0.00 | 0.00 | 0.00 | 93 | 1020.1 |
| 20260509144501 | 8 | 0 | 0.0 | 0.0 | 0.00 | 0.00 | 0.00 | 93 | 1020.0 |
| 20260509143948 | 8 | 0 | 0.0 | 0.0 | 0.00 | 0.00 | 0.00 | 93 | 1019.9 |
| 20260509143435 | 8 | 0 | 0.0 | 0.0 | 0.00 | 0.00 | 0.00 | 93 | 1019.9 |
| 20260509142922 | 8 | 0 | 0.0 | 0.0 | 0.00 | 0.00 | 0.00 | 93 | 1019.8 |
| 20260509142408 | 7 | 0 | 0.0 | 0.0 | 0.00 | 0.00 | 0.00 | 93 | 1019.7 |
| 20260509141856 | 7 | 0 | 0.0 | 0.0 | 0.00 | 0.00 | 0.00 | 93 | 1019.7 |
| 20260509141343 | 7 | 0 | 0.0 | 0.0 | 0.00 | 0.00 | 0.00 | 93 | 1019.9 |
| 20260509140830 | 7 | 0 | 0.0 | 0.0 | 0.00 | 0.00 | 0.00 | 93 | 1019.9 |
| 20260509140316 | 7 | 0 | 0.0 | 0.0 | 0.00 | 0.00 | 0.00 | 93 | 1019.9 |
| 20260509135804 | 7 | 0 | 0.0 | 0.0 | 0.00 | 0.00 | 0.00 | 93 | 1019.8 |
| 20260509135250 | 7 | 0 | 0.0 | 0.0 | 0.00 | 0.00 | 0.00 | 93 | 1019.8 |
| 20260509134738 | 7 | 0 | 0.0 | 0.0 | 0.00 | 0.00 | 0.00 | 93 | 1019.7 |
| 20260509133712 | 7 | 0 | 0.0 | 0.0 | 0.00 | 0.00 | 0.00 | 93 | 1019.7 |
| 20260509133200 | 7 | 0 | 0.0 | 0.0 | 0.00 | 0.00 | 0.00 | 93 | 1019.8 |
| 20260509132645 | 7 | 0 | 0.0 | 0.0 | 0.00 | 0.00 | 0.00 | 93 | 1019.8 |
| 20260509132132 | 7 | 0 | 0.0 | 0.0 | 0.00 | 0.00 | 0.00 | 93 | 1019.8 |
| 20260509131106 | 7 | 0 | 0.0 | 0.0 | 0.00 | 0.00 | 0.00 | 93 | 1019.8 |
| 20260509130553 | 7 | 0 | 0.0 | 0.0 | 0.00 | 0.00 | 0.00 | 93 | 1019.9 |
| 20260509130040 | 7 | 0 | 0.0 | 0.0 | 0.00 | 0.00 | 0.00 | 93 | 1020.0 |
| 20260509124501 | 7 | 0 | 0.0 | 0.0 | 0.00 | 0.00 | 0.00 | 93 | 1019.9 |
| 20260509123948 | 7 | 0 | 0.0 | 0.0 | 0.00 | 0.00 | 0.00 | 93 | 1019.9 |
| 20260509123435 | 7 | 0 | 0.0 | 0.0 | 0.00 | 0.00 | 0.00 | 93 | 1019.9 |
| 20260509122922 | 7 | 0 | 0.0 | 0.0 | 0.00 | 0.00 | 0.00 | 93 | 1020.1 |
| 20260509122409 | 7 | 0 | 0.0 | 0.0 | 0.00 | 0.00 | 0.00 | 93 | 1020.2 |
| 20260509121856 | 7 | 0 | 0.0 | 0.0 | 0.00 | 0.00 | 0.00 | 93 | 1020.2 |
| 20260509121343 | 7 | 0 | 0.0 | 0.0 | 0.00 | 0.00 | 0.00 | 93 | 1020.2 |
| 20260509120830 | 7 | 0 | 0.0 | 0.0 | 0.00 | 0.00 | 0.00 | 93 | 1020.4 |
| 20260509120317 | 7 | 0 | 0.0 | 0.0 | 0.00 | 0.00 | 0.00 | 92 | 1020.4 |
| 20260509115804 | 7 | 0 | 0.0 | 0.0 | 0.00 | 0.00 | 0.00 | 93 | 1020.5 |
| 20260509115251 | 7 | 0 | 0.0 | 0.0 | 0.00 | 0.00 | 0.00 | 92 | 1020.4 |
| 20260509114738 | 7 | 0 | 0.0 | 0.0 | 0.00 | 0.00 | 0.00 | 92 | 1020.4 |
| 20260509113712 | 7 | 0 | 0.0 | 0.0 | 0.00 | 0.00 | 0.00 | 92 | 1020.5 |
| 20260509113159 | 7 | 0 | 0.0 | 0.0 | 0.00 | 0.00 | 0.00 | 92 | 1020.5 |
| 20260509112646 | 7 | 0 | 0.0 | 0.0 | 0.00 | 0.00 | 0.00 | 92 | 1020.7 |
| 20260509112133 | 7 | 0 | 0.0 | 0.0 | 0.00 | 0.00 | 0.00 | 92 | 1020.7 |
| 20260509111620 | 7 | 0 | 0.0 | 0.0 | 0.00 | 0.00 | 0.00 | 92 | 1020.8 |
| 20260509111109 | 7 | 0 | 0.0 | 0.0 | 0.00 | 0.00 | 0.00 | 92 | 1020.8 |
| 20260509110554 | 7 | 0 | 0.0 | 0.0 | 0.00 | 0.00 | 0.00 | 92 | 1020.7 |
| 20260509110041 | 7 | 0 | 0.0 | 0.0 | 0.00 | 0.00 | 0.00 | 92 | 1020.6 |
| 20260509105528 | 7 | 0 | 0.0 | 0.0 | 0.00 | 0.00 | 0.00 | 92 | 1020.7 |
| 20260509104502 | 7 | 0 | 0.0 | 0.0 | 0.00 | 0.00 | 0.00 | 92 | 1020.5 |
| 20260509103951 | 7 | 0 | 0.0 | 0.0 | 0.00 | 0.00 | 0.00 | 92 | 1020.5 |
| 20260509103436 | 7 | 0 | 0.0 | 0.0 | 0.00 | 0.00 | 0.00 | 92 | 1020.5 |
| 20260509102923 | 7 | 0 | 0.0 | 0.0 | 0.00 | 0.00 | 0.00 | 92 | 1020.5 |
| 20260509102410 | 7 | 0 | 0.0 | 0.0 | 0.00 | 0.00 | 0.00 | 91 | 1020.5 |
| 20260509101858 | 7 | 0 | 0.0 | 0.0 | 0.00 | 0.00 | 0.00 | 92 | 1020.7 |
| 20260509101344 | 7 | 0 | 0.0 | 0.0 | 0.00 | 0.00 | 0.00 | 92 | 1020.8 |